Content
SEND FEEDBACK

Daily
Averages
Monthly
Summary
French Polynesia

HITIAA, FRENCH POLYNESIA


Home > Oceania > French Polynesia
Elevation: 7 feet     Latitude: 17 33S     Longitude: 149 37W

WEATHER
 
SELECT A DAY
Number of Records: 214,280;   Date Range: 6/30/96 - 10/22/14
 
SHARE

PRINT THIS DATA

[ ← Previous Day ]
WEATHER ALMANAC - MARCH 14, 2013
[ Next Day → ]
[ °C ]   °F
Weather ElementAverageHighLow
Temperature82.4 °F88 °F (11:00 am)75.2 °F (4:30 am)
Dewpoint71.2 °F75.2 °F (4:30 pm)68 °F (4:30 am)
Humidity68.3 %79 % (9:00 pm)51 % (2:00 pm)
Barometer29.96 in30.01 in (8:30 am)29.92 in (4:00 am)
Wind Speed4.7 mph13.8 mph (11:30 am)
Weather ElementAverage
Visibility7.8 mi
Wind DirectionSE (136.9 °)

Weather ElementTotal
Precipitation---
Cooling Degree Days16.6 (Base 65)
Growing Degree Days31.6 (Base 50)
Averaged from 54 records on March 14, 2013
WEATHER CONDITIONS BREAKOUT
WIND DIRECTION BREAKOUT
WEATHER BY HOUR - MARCH 14, 2013
[ °C ]   °F
Local TimeTemperatureDewpointHumidityBarometerVisibilityWind DirectionWind SpeedGust SpeedPrecipitationEventsConditions
12:30 AM77.0 °F69.8 °F78 %29.98 in6.2 miVariable2.3 mphPartly Cloudy
1:00 AM77.0 °F69.8 °F78 %29.95 in6.2 miSouth (180°)4.6 mphPartly Cloudy
1:30 AM77.0 °F69.8 °F78 %29.95 in6.2 miSouth (170°)4.6 mphPartly Cloudy
2:00 AM78.0 °F70.0 °F69 %29.96 in12.0 miSSE (150°)2.3 mphScattered Clouds
2:00 AM77.0 °F69.8 °F78 %29.95 in6.2 miSSE (150°)2.3 mphPartly Cloudy
2:30 AM77.0 °F69.8 °F78 %29.95 in6.2 miVariable1.2 mphPartly Cloudy
3:00 AM77.0 °F69.8 °F78 %29.95 in6.2 miSSE (160°)3.5 mphPartly Cloudy
3:30 AM77.0 °F69.8 °F78 %29.95 in6.2 miVariable2.3 mph
4:00 AM77.0 °F69.8 °F78 %29.92 in6.2 miVariable2.3 mph
4:30 AM75.2 °F68.0 °F78 %29.92 in6.2 miVariable2.3 mph
5:00 AM76.0 °F68.0 °F69 %29.95 in37.0 miESE (110°)1.2 mphClear
5:00 AM75.2 °F68.0 °F78 %29.95 in6.2 miVariable1.2 mph
5:30 AM75.2 °F68.0 °F78 %29.95 in6.2 miEast (100°)4.6 mph
6:00 AM75.2 °F68.0 °F78 %29.95 in6.2 miESE (110°)3.5 mphPartly Cloudy
6:30 AM75.2 °F68.0 °F78 %29.98 in6.2 miEast (100°)3.5 mphPartly Cloudy
7:30 AM80.6 °F68.0 °F65 %29.98 in6.2 miSSW (200°)2.3 mphPartly Cloudy
8:00 AM83.0 °F69.0 °F54 %30.00 in16.0 miWSW (240°)3.5 mphPartly Cloudy
8:00 AM82.4 °F69.8 °F66 %29.98 in6.2 miWSW (240°)3.5 mphPartly Cloudy
8:30 AM84.2 °F69.8 °F62 %30.01 in6.2 miSW (230°)3.5 mphPartly Cloudy
9:00 AM84.2 °F69.8 °F62 %30.01 in6.2 miVariable2.3 mphPartly Cloudy
9:30 AM86.0 °F71.6 °F62 %30.01 in6.2 miWSW (240°)3.5 mphPartly Cloudy
10:00 AM86.0 °F71.6 °F62 %30.01 in6.2 miSW (230°)5.8 mphPartly Cloudy
10:30 AM86.0 °F71.6 °F62 %29.98 in6.2 miSW (230°)5.8 mphPartly Cloudy
11:00 AM88.0 °F73.0 °F54 %29.99 in16.0 miNorth (10°)6.9 mphScattered Clouds
11:00 AM87.8 °F73.4 °F62 %29.98 in6.2 miNorth (10°)6.9 mphPartly Cloudy
11:30 AM87.8 °F73.4 °F62 %29.98 in6.2 miNE (50°)13.8 mphPartly Cloudy
12:00 PM87.8 °F73.4 °F62 %29.95 in6.2 miENE (60°)11.5 mphPartly Cloudy
12:30 PM87.8 °F69.8 °F55 %29.95 in6.2 miSouth (190°)5.8 mphPartly Cloudy
1:00 PM87.8 °F71.6 °F58 %29.95 in6.2 miSW (220°)10.4 mphPartly Cloudy
1:30 PM87.8 °F71.6 °F58 %29.95 in6.2 miSSW (210°)13.8 mphPartly Cloudy
2:00 PM87.0 °F71.0 °F51 %29.94 in16.0 miSSW (210°)9.2 mphScattered Clouds
2:00 PM87.8 °F71.6 °F58 %29.92 in6.2 miSSW (210°)9.2 mphPartly Cloudy
2:30 PM87.8 °F69.8 °F55 %29.92 in6.2 miSW (220°)9.2 mphPartly Cloudy
3:00 PM87.8 °F69.8 °F55 %29.92 in6.2 miSW (220°)8.1 mphPartly Cloudy
3:30 PM87.8 °F71.6 °F58 %29.92 in6.2 miSW (230°)5.8 mphPartly Cloudy
4:00 PM87.8 °F73.4 °F62 %29.92 in6.2 miWSW (240°)6.9 mphPartly Cloudy
4:30 PM87.8 °F75.2 °F66 %29.92 in6.2 miWSW (240°)4.6 mphPartly Cloudy
5:00 PM87.0 °F74.0 °F58 %29.93 in16.0 miWNW (290°)3.5 mphScattered Clouds
5:00 PM87.8 °F75.2 °F66 %29.92 in6.2 miWNW (290°)3.5 mphPartly Cloudy
5:30 PM86.0 °F73.4 °F66 %29.92 in6.2 miWNW (300°)3.5 mphPartly Cloudy
6:00 PM84.2 °F75.2 °F74 %29.92 in6.2 miWNW (290°)4.6 mphPartly Cloudy
6:30 PM84.2 °F73.4 °F70 %29.95 in6.2 miWSW (240°)6.9 mphPartly Cloudy
7:00 PM82.4 °F73.4 °F74 %29.95 in6.2 miSW (220°)6.9 mphPartly Cloudy
7:30 PM82.4 °F73.4 °F74 %29.95 in6.2 miSSE (160°)4.6 mphPartly Cloudy
8:00 PM82.0 °F72.0 °F65 %29.96 in12.0 miEast (100°)4.6 mphScattered Clouds
8:00 PM82.4 °F71.6 °F70 %29.95 in6.2 miEast (100°)4.6 mphPartly Cloudy
8:30 PM80.6 °F71.6 °F74 %29.95 in6.2 miENE (70°)3.5 mphPartly Cloudy
9:00 PM80.6 °F73.4 °F79 %29.95 in6.2 miNE (50°)3.5 mphPartly Cloudy
9:30 PM80.6 °F73.4 °F79 %29.98 in6.2 miVariable1.2 mphPartly Cloudy
10:00 PM80.6 °F73.4 °F79 %29.98 in6.2 miCalmPartly Cloudy
10:30 PM80.6 °F71.6 °F74 %29.95 in6.2 miVariable2.3 mphPartly Cloudy
11:00 PM80.0 °F72.0 °F70 %29.97 in12.0 miESE (120°)4.5 mphScattered Clouds
11:00 PM80.6 °F71.6 °F74 %29.95 in6.2 miVariable2.3 mphPartly Cloudy
11:30 PM78.8 °F71.6 °F78 %29.95 in6.2 miVariable1.2 mphPartly Cloudy
Hourly data recorded from NTAA, located miles away from Hitiaa, French Polynesia







STORIES FROM OUR PARTNERS